Location: Newark
(1.4000°N, 32.2500°E)
Time: 17:08:58
(UTC+00:00)

N. Korean satellite - Visible Passes

Search period start: 20 October 2019 00:00
Search period end: 30 October 2019 00:00
Orbit: 455 x 508 km, 97.2° (Epoch: 20 October)

Date Brightness Start Highest point End Pass type
(mag) Time Alt. Az. Time Alt. Az. Time Alt. Az.
21 Oct 8.7 03:00:48 10° NE 03:04:09 34° E 03:07:34 10° SSE visible
22 Oct 10.2 02:36:59 10° ENE 02:38:56 14° E 02:40:54 10° SE visible
22 Oct 9.7 15:57:38 10° SSW 16:00:17 21° W 16:02:55 10° NW visible
25 Oct 9.3 02:53:14 10° NE 02:56:22 26° E 02:59:30 10° SSE visible
25 Oct 10.6 16:16:48 10° WSW 16:17:40 11° W 16:18:30 10° W visible
26 Oct 10.6 02:30:24 10° E 02:31:08 10° E 02:31:51 10° ESE visible
28 Oct 7.7 03:10:09 10° NNE 03:13:45 51° E 03:17:22 10° S visible
29 Oct 9.8 02:45:45 10° NE 02:48:30 20° E 02:51:16 10° SSE visible
29 Oct 10.0 16:07:49 10° SW 16:09:45 14° W 16:11:41 10° WNW visible
